STARLINK-2712, 48674

Orbit data source: Space-Track

STARLINK-2712, 48674 is a payload satellite owned by SpaceX/Seattle (US) in LEO that was launched on Wed, 26 May 2021 UTC via an FALCON 9 launch vehicle from the Air Force Eastern Test Range (AFETR). Payload-class satellites include a variety of spacecraft equipped with specific instruments for various scientific and technological missions. These include communications satellites like Starlink; space stations such as the ISS; scientific satellites like the Hubble; Earth observation satellites from companies like Planet Labs, Umbra, and HawkEye 360; GPS; miniature CubeSats for education and research; and military/defense satellites.

Loading next visibility...
Identifier
48674, 2021-044AN
Orbit
LEO
Country
Flag of USUS
Related business
Manufacturer
SpaceX/Seattle
Mission
Operational Commercial Communications
Bus & Motor
STARLINK, Unknown motor
Mass
260 kg wet, ~248 kg dry
Launch date (UTC)
2021-05-26 (5 years ago)
Launch vehicle
FALCON 9
Launch site
Air Force Eastern Test Range (AFETR)
Object type
Payload
Rocket body
Debris
Shape & HBR
Box + 1 Pan, 10.1 m
Radar Cross Section
13.562 m², Large (>1 m²)

Expand to show TLE details & history
Last TLE update: 3 days ago

TLE from 3 days ago
0 STARLINK-2712
1 48674U 21044AN  26170.81641650  .00002670  00000-0  10481-3 0  9999
2 48674  53.1592 359.7287 0001090 100.4115 259.7008 15.29360595279441
Epoch: 2026-06-19T19:35Z
TLE epoch observation values (Epoch: 2026-06-19T19:35:38.385Z)
Latitude
-0.00005°
Longitude
157.77876°
Altitude
478.756 km
Speed
7.627 km/s
True Right ascension
23h 58m 54s
True Declination
0° 00' 00"
Sunlit
Object was in daylight at epoch
Visualization orbit readout
Latitude
Unknown
Longitude
Unknown
Altitude
Unknown
Speed
Unknown
Apparent Right ascension
Unknown
Apparent Declination
Unknown
Sunlit
N/A
Visualization observer readout
Local Sidereal Time
21:39:06
Azimuth
Unknown
Elevation
Unknown
Doppler factor
Unknown
Orbital elements
Apogee altitude
478.726 km
Perigee altitude
477.232 km
Semi-major axis
6,856.116 km
Eccentricity
0.00011
Inclination
53.1592°
RAAN
359.7287°
Arg. of periapsis
100.4115°
True anomaly
259.68851°
Mean anomaly
259.7008°
Eccentric anomaly
259.69466°
Mean motion
3.82319 °/min
Orbital period
94.16 mins
BSTAR
0.00010481
Loading maneuver chart data...
Computing Atmospheric mass density...

Documentation

Showing up to 5 results
|